| time (UTC) | temp F | wind direction | speed knots | gust knots | rain 1hr in | rain 24hr in | rain mn in | humidity % | barometer mb |
| 20260509125200 | 93 | 292 | 0.0 | 99.9 | 0.00 | 0.00 | 0.00 | 61 | 994.8 |
| 20260509124200 | 93 | 292 | 0.0 | 99.9 | 0.00 | 0.00 | 0.00 | 61 | 994.8 |
| 20260509123702 | 93 | 90 | 86.9 | 99.1 | 0.00 | 0.00 | 0.00 | 60 | 994.8 |
| 20260509123200 | 93 | 292 | 0.0 | 96.5 | 0.00 | 0.00 | 0.00 | 60 | 994.6 |
| 20260509122700 | 93 | 0 | 0.0 | 99.9 | 0.00 | 0.00 | 0.00 | 60 | 994.5 |
| 20260509122200 | 93 | 90 | 0.0 | 99.1 | 0.00 | 0.00 | 0.00 | 60 | 994.5 |
| 20260509121700 | 93 | 337 | 49.5 | 99.1 | 0.00 | 0.00 | 0.00 | 60 | 994.4 |
| 20260509121202 | 94 | 247 | 65.2 | 99.9 | 0.00 | 0.00 | 0.00 | 60 | 994.4 |
| 20260509120700 | 94 | 90 | 0.0 | 96.5 | 0.00 | 0.00 | 0.00 | 60 | 994.3 |
| 20260509120200 | 94 | 22 | 0.0 | 96.5 | 0.00 | 0.00 | 0.00 | 59 | 994.5 |
| 20260509115159 | 94 | 157 | 96.5 | 99.9 | 0.00 | 0.00 | 0.00 | 59 | 994.3 |
| 20260509114701 | 95 | 315 | 48.7 | 99.9 | 0.00 | 0.00 | 0.00 | 59 | 994.1 |
| 20260509113659 | 95 | 90 | 0.0 | 93.8 | 0.00 | 0.00 | 0.00 | 58 | 994.2 |
| 20260509112659 | 95 | 90 | 0.0 | 0.0 | 0.00 | 0.00 | 0.00 | 57 | 993.8 |
| 20260509112201 | 95 | 0 | 2.6 | 2.6 | 0.00 | 0.00 | 0.00 | 57 | 993.8 |
| 20260509111159 | 96 | 90 | 0.0 | 0.0 | 0.00 | 0.00 | 0.00 | 57 | 993.6 |
| 20260509110159 | 96 | 292 | 0.0 | 0.0 | 0.00 | 0.00 | 0.00 | 57 | 993.8 |
| 20260509105701 | 96 | 90 | 0.0 | 4.3 | 0.00 | 0.00 | 0.00 | 57 | 993.7 |
| 20260509105159 | 96 | 0 | 1.7 | 1.7 | 0.00 | 0.00 | 0.00 | 57 | 993.6 |
| 20260509104159 | 96 | 0 | 0.0 | 0.0 | 0.00 | 0.00 | 0.00 | 56 | 993.4 |
| 20260509103659 | 96 | 22 | 0.0 | 0.0 | 0.00 | 0.00 | 0.00 | 56 | 993.2 |
| 20260509103201 | 96 | 22 | 0.0 | 0.0 | 0.00 | 0.00 | 0.00 | 56 | 993.3 |
| 20260509102659 | 96 | 22 | 0.0 | 0.0 | 0.00 | 0.00 | 0.00 | 56 | 993.5 |
| 20260509102159 | 97 | 0 | 0.0 | 0.0 | 0.00 | 0.00 | 0.00 | 55 | 993.5 |
| 20260509101659 | 97 | 90 | 0.0 | 0.0 | 0.00 | 0.00 | 0.00 | 55 | 993.2 |
| 20260509101158 | 97 | 22 | 0.0 | 0.0 | 0.00 | 0.00 | 0.00 | 55 | 993.0 |
| 20260509100700 | 97 | 22 | 0.0 | 0.9 | 0.00 | 0.00 | 0.00 | 55 | 992.8 |
| 20260509100158 | 97 | 22 | 0.0 | 0.0 | 0.00 | 0.00 | 0.00 | 55 | 992.8 |
| 20260509095658 | 97 | 22 | 0.0 | 0.0 | 0.00 | 0.00 | 0.00 | 54 | 993.0 |
| 20260509095158 | 98 | 22 | 0.9 | 0.9 | 0.00 | 0.00 | 0.00 | 54 | 992.9 |
| 20260509094658 | 98 | 0 | 0.0 | 3.5 | 0.00 | 0.00 | 0.00 | 54 | 992.8 |
| 20260509094200 | 98 | 0 | 0.0 | 0.0 | 0.00 | 0.00 | 0.00 | 54 | 992.7 |
| 20260509093658 | 98 | 0 | 0.0 | 0.0 | 0.00 | 0.00 | 0.00 | 54 | 993.0 |
| 20260509092658 | 99 | 0 | 0.0 | 0.0 | 0.00 | 0.00 | 0.00 | 54 | 993.1 |
| 20260509092159 | 99 | 292 | 0.0 | 0.0 | 0.00 | 0.00 | 0.00 | 54 | 993.0 |
| 20260509091700 | 100 | 0 | 0.0 | 0.0 | 0.00 | 0.00 | 0.00 | 53 | 993.1 |
| 20260509091158 | 100 | 22 | 0.0 | 0.0 | 0.00 | 0.00 | 0.00 | 53 | 993.1 |
| 20260509090158 | 102 | 0 | 0.0 | 0.0 | 0.00 | 0.00 | 0.00 | 52 | 993.2 |
| 20260509085658 | 102 | 90 | 0.0 | 0.0 | 0.00 | 0.00 | 0.00 | 52 | 993.1 |
| 20260509085200 | 103 | 0 | 0.0 | 0.0 | 0.00 | 0.00 | 0.00 | 52 | 993.2 |
| 20260509084158 | 103 | 22 | 0.0 | 0.0 | 0.00 | 0.00 | 0.00 | 52 | 993.5 |
| 20260509083658 | 103 | 0 | 0.0 | 0.0 | 0.00 | 0.00 | 0.00 | 52 | 993.6 |
| 20260509083157 | 41 | 0 | 0.0 | 0.0 | 0.00 | 0.00 | 0.00 | 52 | 993.7 |
| 20260509082659 | 102 | 0 | 0.0 | 0.0 | 0.00 | 0.00 | 0.00 | 52 | 993.6 |
| 20260509082158 | 102 | 22 | 0.0 | 0.0 | 0.00 | 0.00 | 0.00 | 51 | 993.7 |
| 20260509081657 | 103 | 22 | 0.0 | 0.0 | 0.00 | 0.00 | 0.00 | 51 | 993.7 |
| 20260509080657 | 103 | 90 | 0.0 | 0.0 | 0.00 | 0.00 | 0.00 | 51 | 994.1 |
| 20260509080159 | 103 | 22 | 0.0 | 7.0 | 0.00 | 0.00 | 0.00 | 51 | 994.0 |
| 20260509075657 | 103 | 22 | 0.0 | 0.0 | 0.00 | 0.00 | 0.00 | 53 | 994.0 |
| 20260509074657 | 102 | 0 | 0.0 | 0.0 | 0.00 | 0.00 | 0.00 | 54 | 994.3 |
| 20260509074157 | 102 | 90 | 0.0 | 0.0 | 0.00 | 0.00 | 0.00 | 54 | 994.4 |
| 20260509073559 | 102 | 292 | 0.0 | 0.0 | 0.00 | 0.00 | 0.00 | 53 | 994.3 |
| 20260509073057 | 102 | 22 | 0.0 | 0.0 | 0.00 | 0.00 | 0.00 | 53 | 994.5 |
| 20260509072557 | 102 | 22 | 0.0 | 0.0 | 0.00 | 0.00 | 0.00 | 54 | 994.4 |
| 20260509071557 | 102 | 292 | 0.0 | 0.0 | 0.00 | 0.00 | 0.00 | 53 | 994.6 |
| 20260509071059 | 102 | 292 | 0.0 | 0.0 | 0.00 | 0.00 | 0.00 | 54 | 994.7 |
| 20260509070557 | 102 | 22 | 0.0 | 0.0 | 0.00 | 0.00 | 0.00 | 55 | 994.9 |
| 20260509065557 | 102 | 0 | 0.0 | 1.7 | 0.00 | 0.00 | 0.00 | 55 | 995.2 |
| 20260509065056 | 101 | 22 | 0.0 | 0.0 | 0.00 | 0.00 | 0.00 | 55 | 995.2 |
| 20260509064558 | 101 | 90 | 0.0 | 0.0 | 0.00 | 0.00 | 0.00 | 56 | 995.4 |
| 20260509064056 | 101 | 22 | 0.0 | 0.0 | 0.00 | 0.00 | 0.00 | 56 | 995.5 |
| 20260509063456 | 101 | 90 | 0.0 | 2.6 | 0.00 | 0.00 | 0.00 | 56 | 995.5 |
| 20260509062956 | 101 | 22 | 0.0 | 0.0 | 0.00 | 0.00 | 0.00 | 56 | 995.5 |
| 20260509062456 | 101 | 22 | 0.0 | 0.0 | 0.00 | 0.00 | 0.00 | 56 | 995.7 |
| 20260509062004 | 100 | 22 | 0.0 | 2.6 | 0.00 | 0.00 | 0.00 | 56 | 995.8 |
| 20260509061456 | 100 | 22 | 0.0 | 1.7 | 0.00 | 0.00 | 0.00 | 57 | 995.9 |
| 20260509060956 | 100 | 180 | 0.9 | 0.9 | 0.00 | 0.00 | 0.00 | 57 | 996.1 |
| 20260509060456 | 100 | 22 | 0.0 | 4.3 | 0.00 | 0.00 | 0.00 | 57 | 996.2 |
| 20260509055956 | 99 | 292 | 0.0 | 1.7 | 0.00 | 0.00 | 0.00 | 57 | 996.4 |
| 20260509055458 | 99 | 0 | 0.0 | 3.5 | 0.00 | 0.00 | 0.00 | 58 | 996.5 |
| 20260509054456 | 98 | 22 | 1.7 | 1.7 | 0.00 | 0.00 | 0.00 | 59 | 996.6 |
| 20260509054017 | 98 | 292 | 0.0 | 0.0 | 0.00 | 0.00 | 0.00 | 59 | 996.9 |
| 20260509053356 | 97 | 90 | 0.0 | 2.6 | 0.00 | 0.00 | 0.00 | 60 | 997.0 |
| 20260509052857 | 97 | 90 | 0.0 | 0.0 | 0.00 | 0.00 | 0.00 | 60 | 997.0 |
| 20260509052356 | 97 | 22 | 0.0 | 0.0 | 0.00 | 0.00 | 0.00 | 60 | 997.2 |
| 20260509051856 | 97 | 0 | 0.0 | 0.0 | 0.00 | 0.00 | 0.00 | 59 | 997.2 |
| 20260509050855 | 97 | 0 | 0.0 | 0.0 | 0.00 | 0.00 | 0.00 | 59 | 997.2 |
| 20260509050357 | 97 | 0 | 0.0 | 1.7 | 0.00 | 0.00 | 0.00 | 59 | 997.3 |
| 20260509045855 | 97 | 22 | 1.7 | 1.7 | 0.00 | 0.00 | 0.00 | 58 | 997.4 |
| 20260509044855 | 97 | 22 | 0.0 | 0.0 | 0.00 | 0.00 | 0.00 | 58 | 997.6 |
| 20260509044355 | 97 | 90 | 0.0 | 1.7 | 0.00 | 0.00 | 0.00 | 58 | 997.7 |
| 20260509043757 | 97 | 22 | 0.0 | 2.6 | 0.00 | 0.00 | 0.00 | 58 | 997.6 |
| 20260509042755 | 97 | 292 | 0.0 | 1.7 | 0.00 | 0.00 | 0.00 | 59 | 997.8 |
| 20260509042301 | 97 | 0 | 0.0 | 3.5 | 0.00 | 0.00 | 0.00 | 59 | 997.9 |
| 20260509041755 | 97 | 22 | 0.0 | 1.7 | 0.00 | 0.00 | 0.00 | 60 | 997.9 |
| 20260509041257 | 97 | 0 | 0.0 | 0.0 | 0.00 | 0.00 | 0.00 | 60 | 997.9 |
| 20260509035255 | 95 | 292 | 0.0 | 0.0 | 0.00 | 0.00 | 0.00 | 62 | 998.4 |
| 20260509034757 | 95 | 292 | 0.0 | 0.0 | 0.00 | 0.00 | 0.00 | 62 | 998.2 |
| 20260509034255 | 95 | 22 | 0.0 | 0.0 | 0.00 | 0.00 | 0.00 | 63 | 998.2 |
| 20260509033655 | 95 | 22 | 0.0 | 1.7 | 0.00 | 0.00 | 0.00 | 64 | 998.3 |
| 20260509033155 | 94 | 90 | 0.0 | 0.0 | 0.00 | 0.00 | 0.00 | 64 | 998.4 |
| 20260509032654 | 94 | 0 | 0.0 | 1.7 | 0.00 | 0.00 | 0.00 | 64 | 998.4 |
| 20260509032156 | 94 | 22 | 0.0 | 0.0 | 0.00 | 0.00 | 0.00 | 65 | 998.4 |
| 20260509031654 | 94 | 0 | 0.0 | 0.0 | 0.00 | 0.00 | 0.00 | 66 | 998.5 |
| 20260509031154 | 93 | 0 | 0.0 | 0.0 | 0.00 | 0.00 | 0.00 | 66 | 998.5 |
| 20260509030154 | 93 | 292 | 3.5 | 3.5 | 0.00 | 0.00 | 0.00 | 67 | 998.5 |
| 20260509025656 | 93 | 22 | 0.0 | 0.0 | 0.00 | 0.00 | 0.00 | 67 | 998.5 |
| 20260509024654 | 93 | 22 | 0.0 | 0.0 | 0.00 | 0.00 | 0.00 | 67 | 998.8 |
| 20260509024154 | 92 | 90 | 0.0 | 0.0 | 0.00 | 0.00 | 0.00 | 68 | 998.9 |
| 20260509023554 | 92 | 22 | 0.0 | 0.0 | 0.00 | 0.00 | 0.00 | 69 | 999.1 |
| 20260509023056 | 92 | 22 | 0.0 | 3.5 | 0.00 | 0.00 | 0.00 | 69 | 999.1 |
| 20260509022554 | 91 | 90 | 0.0 | 0.0 | 0.00 | 0.00 | 0.00 | 69 | 999.1 |
| 20260509021554 | 91 | 22 | 0.0 | 1.7 | 0.00 | 0.00 | 0.00 | 70 | 999.2 |
| 20260509021054 | 90 | 0 | 0.0 | 0.0 | 0.00 | 0.00 | 0.00 | 71 | 999.3 |
| 20260509020556 | 90 | 22 | 0.0 | 0.0 | 0.00 | 0.00 | 0.00 | 72 | 999.3 |
| 20260509015554 | 89 | 22 | 0.0 | 0.0 | 0.00 | 0.00 | 0.00 | 74 | 999.2 |
| 20260509014954 | 88 | 90 | 0.0 | 1.7 | 0.00 | 0.00 | 0.00 | 75 | 999.1 |
| 20260509014453 | 88 | 0 | 0.0 | 0.0 | 0.00 | 0.00 | 0.00 | 76 | 999.1 |
| 20260509013955 | 87 | 22 | 0.0 | 99.9 | 0.00 | 0.00 | 0.00 | 76 | 999.1 |
| 20260509013453 | 86 | 0 | 99.9 | 99.9 | 0.00 | 0.00 | 0.00 | 76 | 999.2 |
| 20260509012453 | 86 | 0 | 99.9 | 99.9 | 0.00 | 0.00 | 0.00 | 76 | 999.2 |
| 20260509011455 | 176 | 0 | 99.9 | 99.9 | 0.00 | 0.00 | 0.00 | 10 | 999.2 |
| 20260509010453 | 176 | 0 | 99.9 | 99.9 | 0.00 | 0.00 | 0.00 | 10 | 998.9 |
| 20260509005453 | 176 | 0 | 99.9 | 99.9 | 0.00 | 0.00 | 0.00 | 10 | 998.8 |
| 20260509004955 | 176 | 0 | 99.9 | 99.9 | 0.00 | 0.00 | 0.00 | 10 | 999.1 |
| 20260509004453 | 176 | 0 | 99.9 | 99.9 | 0.00 | 0.00 | 0.00 | 10 | 998.9 |
| 20260509003453 | 85 | 0 | 0.0 | 0.0 | 0.00 | 0.00 | 0.00 | 79 | 998.6 |
| 20260509002953 | 85 | 0 | 0.0 | 2.6 | 0.00 | 0.00 | 0.00 | 79 | 998.7 |
| 20260509002454 | 85 | 0 | 1.7 | 5.2 | 0.00 | 0.00 | 0.00 | 79 | 998.6 |
| 20260509001956 | 85 | 0 | 0.0 | 3.5 | 0.00 | 0.00 | 0.00 | 79 | 998.7 |
| 20260509001453 | 85 | 0 | 0.0 | 4.3 | 0.00 | 0.00 | 0.00 | 79 | 998.7 |
| 20260509000454 | 84 | 0 | 0.0 | 3.5 | 0.00 | 0.00 | 0.00 | 79 | 998.6 |
| 20260508235954 | 84 | 0 | 1.7 | 5.2 | 0.00 | 0.00 | 0.00 | 79 | 998.5 |
| 20260508234952 | 84 | 0 | 0.0 | 3.5 | 0.00 | 0.00 | 0.00 | 80 | 998.6 |
| 20260508233952 | 83 | 22 | 0.9 | 0.9 | 0.00 | 0.00 | 0.00 | 80 | 998.4 |
| 20260508233454 | 83 | 0 | 0.0 | 3.5 | 0.00 | 0.00 | 0.00 | 80 | 998.2 |
| 20260508232452 | 83 | 292 | 0.0 | 1.7 | 0.00 | 0.00 | 0.00 | 80 | 998.1 |
| 20260508231956 | 83 | 292 | 0.0 | 2.6 | 0.00 | 0.00 | 0.00 | 80 | 998.3 |
| 20260508231452 | 83 | 0 | 0.0 | 0.0 | 0.00 | 0.00 | 0.00 | 80 | 998.2 |
| 20260508230954 | 83 | 0 | 0.0 | 1.7 | 0.00 | 0.00 | 0.00 | 80 | 997.9 |
| 20260508230452 | 83 | 0 | 0.0 | 3.5 | 0.00 | 0.00 | 0.00 | 80 | 997.9 |
| 20260508225952 | 83 | 0 | 1.7 | 1.7 | 0.00 | 0.00 | 0.00 | 80 | 997.8 |
| 20260508224952 | 83 | 0 | 1.7 | 1.7 | 0.00 | 0.00 | 0.00 | 79 | 997.7 |
| 20260508224453 | 83 | 292 | 0.0 | 0.0 | 0.00 | 0.00 | 0.00 | 79 | 997.7 |
| 20260508223952 | 83 | 292 | 0.0 | 3.5 | 0.00 | 0.00 | 0.00 | 79 | 997.7 |
| 20260508222951 | 83 | 0 | 0.0 | 0.0 | 0.00 | 0.00 | 0.00 | 79 | 997.4 |
| 20260508222452 | 83 | 292 | 0.0 | 0.0 | 0.00 | 0.00 | 0.00 | 79 | 997.4 |
| 20260508221957 | 83 | 292 | 0.0 | 0.0 | 0.00 | 0.00 | 0.00 | 79 | 997.3 |
| 20260508220951 | 83 | 292 | 0.0 | 0.0 | 0.00 | 0.00 | 0.00 | 79 | 997.1 |
| 20260508215951 | 83 | 292 | 0.0 | 1.7 | 0.00 | 0.00 | 0.00 | 79 | 997.0 |
| 20260508215453 | 83 | 292 | 0.0 | 0.0 | 0.00 | 0.00 | 0.00 | 79 | 997.0 |
| 20260508214951 | 83 | 0 | 0.0 | 0.0 | 0.00 | 0.00 | 0.00 | 79 | 996.9 |
| 20260508214451 | 83 | 292 | 0.0 | 1.7 | 0.00 | 0.00 | 0.00 | 79 | 996.9 |
| 20260508213951 | 83 | 292 | 0.0 | 0.0 | 0.00 | 0.00 | 0.00 | 79 | 996.6 |
| 20260508213451 | 83 | 292 | 0.0 | 1.7 | 0.00 | 0.00 | 0.00 | 79 | 996.5 |
| 20260508212953 | 83 | 0 | 0.0 | 0.0 | 0.00 | 0.00 | 0.00 | 79 | 996.7 |
| 20260508212451 | 83 | 0 | 0.0 | 0.0 | 0.00 | 0.00 | 0.00 | 79 | 996.5 |
| 20260508211451 | 83 | 292 | 0.0 | 0.0 | 0.00 | 0.00 | 0.00 | 78 | 996.4 |
| 20260508210951 | 84 | 292 | 0.0 | 25.2 | 0.00 | 0.00 | 0.00 | 78 | 996.4 |
| 20260508210453 | 84 | 0 | 0.0 | 0.0 | 0.00 | 0.00 | 0.00 | 78 | 996.3 |
| 20260508205951 | 84 | 0 | 0.0 | 0.0 | 0.00 | 0.00 | 0.00 | 78 | 996.2 |
| 20260508205451 | 83 | 0 | 0.0 | 0.0 | 0.00 | 0.00 | 0.00 | 79 | 996.1 |
| 20260508204450 | 83 | 22 | 0.0 | 0.0 | 0.00 | 0.00 | 0.00 | 79 | 995.9 |
| 20260508203952 | 83 | 22 | 0.0 | 0.0 | 0.00 | 0.00 | 0.00 | 79 | 995.8 |
| 20260508203450 | 83 | 22 | 0.0 | 0.0 | 0.00 | 0.00 | 0.00 | 79 | 995.8 |
| 20260508202450 | 83 | 292 | 0.0 | 0.0 | 0.00 | 0.00 | 0.00 | 79 | 995.8 |
| 20260508201955 | 83 | 90 | 0.0 | 0.0 | 0.00 | 0.00 | 0.00 | 79 | 995.7 |
| 20260508201452 | 84 | 22 | 0.0 | 0.0 | 0.00 | 0.00 | 0.00 | 79 | 995.7 |
| 20260508200450 | 84 | 0 | 0.0 | 0.0 | 0.00 | 0.00 | 0.00 | 78 | 995.7 |
| 20260508195950 | 84 | 90 | 0.0 | 0.0 | 0.00 | 0.00 | 0.00 | 78 | 995.7 |
| 20260508195450 | 84 | 90 | 0.0 | 0.0 | 0.00 | 0.00 | 0.00 | 78 | 995.8 |
| 20260508194952 | 84 | 90 | 0.0 | 0.0 | 0.00 | 0.00 | 0.00 | 78 | 995.8 |
| 20260508194450 | 84 | 22 | 0.0 | 0.0 | 0.00 | 0.00 | 0.00 | 78 | 995.8 |
| 20260508193950 | 84 | 0 | 0.0 | 0.0 | 0.00 | 0.00 | 0.00 | 78 | 995.9 |
| 20260508192950 | 84 | 90 | 1.7 | 1.7 | 0.00 | 0.00 | 0.00 | 77 | 995.9 |
| 20260508192452 | 84 | 22 | 0.0 | 3.5 | 0.00 | 0.00 | 0.00 | 77 | 995.8 |
| 20260508191952 | 84 | 90 | 0.0 | 0.0 | 0.00 | 0.00 | 0.00 | 77 | 995.9 |
| 20260508190949 | 84 | 0 | 0.9 | 3.5 | 0.00 | 0.00 | 0.00 | 77 | 995.9 |
| 20260508190449 | 85 | 90 | 0.0 | 1.7 | 0.00 | 0.00 | 0.00 | 76 | 996.0 |
| 20260508185951 | 67 | 22 | 0.0 | 0.0 | 0.00 | 0.00 | 0.00 | 76 | 996.2 |
| 20260508184949 | 85 | 22 | 0.0 | 2.6 | 0.00 | 0.00 | 0.00 | 75 | 996.4 |
| 20260508183949 | 85 | 292 | 0.0 | 2.6 | 0.00 | 0.00 | 0.00 | 75 | 996.3 |
| 20260508183451 | 86 | 0 | 0.0 | 1.7 | 0.00 | 0.00 | 0.00 | 74 | 996.4 |
| 20260508182949 | 86 | 0 | 0.0 | 2.6 | 0.00 | 0.00 | 0.00 | 74 | 996.4 |
| 20260508182449 | 86 | 0 | 1.7 | 1.7 | 0.00 | 0.00 | 0.00 | 74 | 996.4 |
| 20260508181449 | 86 | 0 | 0.0 | 1.7 | 0.00 | 0.00 | 0.00 | 74 | 996.5 |
| 20260508180951 | 86 | 0 | 0.0 | 7.8 | 0.00 | 0.00 | 0.00 | 74 | 996.5 |
| 20260508180449 | 86 | 0 | 0.0 | 1.7 | 0.00 | 0.00 | 0.00 | 74 | 996.5 |
| 20260508175449 | 86 | 0 | 0.0 | 2.6 | 0.00 | 0.00 | 0.00 | 73 | 996.7 |
| 20260508174949 | 86 | 292 | 0.0 | 0.0 | 0.00 | 0.00 | 0.00 | 73 | 996.9 |
| 20260508174451 | 86 | 0 | 0.0 | 12.2 | 0.00 | 0.00 | 0.00 | 73 | 996.9 |
| 20260508173949 | 86 | 22 | 0.0 | 0.0 | 0.00 | 0.00 | 0.00 | 73 | 996.9 |
| 20260508173449 | 86 | 292 | 0.0 | 0.0 | 0.00 | 0.00 | 0.00 | 73 | 997.1 |
| 20260508172448 | 86 | 292 | 0.0 | 0.0 | 0.00 | 0.00 | 0.00 | 73 | 997.6 |
| 20260508171953 | 86 | 292 | 0.0 | 0.0 | 0.00 | 0.00 | 0.00 | 73 | 997.6 |
| 20260508170948 | 86 | 292 | 0.0 | 0.0 | 0.00 | 0.00 | 0.00 | 73 | 997.7 |
| 20260508165948 | 86 | 292 | 0.0 | 0.0 | 0.00 | 0.00 | 0.00 | 73 | 997.9 |
| 20260508165450 | 86 | 0 | 0.0 | 0.0 | 0.00 | 0.00 | 0.00 | 73 | 997.8 |
| 20260508164448 | 86 | 292 | 0.0 | 0.0 | 0.00 | 0.00 | 0.00 | 73 | 997.8 |
| 20260508163448 | 86 | 0 | 0.0 | 0.0 | 0.00 | 0.00 | 0.00 | 73 | 997.9 |
| 20260508162950 | 86 | 0 | 0.0 | 1.7 | 0.00 | 0.00 | 0.00 | 73 | 997.7 |
| 20260508162448 | 86 | 292 | 1.7 | 1.7 | 0.00 | 0.00 | 0.00 | 73 | 997.7 |
| 20260508161450 | 86 | 292 | 0.0 | 0.9 | 0.00 | 0.00 | 0.00 | 73 | 997.8 |
| 20260508160948 | 86 | 0 | 0.0 | 1.7 | 0.00 | 0.00 | 0.00 | 73 | 997.8 |
| 20260508160450 | 86 | 292 | 1.7 | 1.7 | 0.00 | 0.00 | 0.00 | 73 | 997.8 |
| 20260508155448 | 86 | 292 | 0.9 | 3.5 | 0.00 | 0.00 | 0.00 | 72 | 998.1 |
| 20260508154947 | 87 | 292 | 2.6 | 2.6 | 0.00 | 0.00 | 0.00 | 72 | 998.0 |
| 20260508154447 | 87 | 292 | 0.0 | 0.0 | 0.00 | 0.00 | 0.00 | 71 | 998.0 |
| 20260508153949 | 87 | 292 | 0.0 | 3.5 | 0.00 | 0.00 | 0.00 | 71 | 998.1 |
| 20260508153447 | 87 | 0 | 0.0 | 2.6 | 0.00 | 0.00 | 0.00 | 71 | 998.1 |
| 20260508152947 | 87 | 292 | 0.0 | 1.7 | 0.00 | 0.00 | 0.00 | 70 | 997.9 |
| 20260508152447 | 87 | 292 | 0.0 | 2.6 | 0.00 | 0.00 | 0.00 | 70 | 997.9 |
| 20260508151952 | 88 | 292 | 0.0 | 2.6 | 0.00 | 0.00 | 0.00 | 70 | 997.9 |
| 20260508151449 | 88 | 292 | 0.0 | 1.7 | 0.00 | 0.00 | 0.00 | 70 | 997.9 |
| 20260508150947 | 88 | 292 | 0.0 | 1.7 | 0.00 | 0.00 | 0.00 | 70 | 998.0 |
| 20260508145947 | 88 | 292 | 0.0 | 0.0 | 0.00 | 0.00 | 0.00 | 69 | 998.0 |
| 20260508145447 | 88 | 292 | 0.0 | 0.0 | 0.00 | 0.00 | 0.00 | 69 | 998.2 |
| 20260508144949 | 88 | 0 | 0.0 | 0.0 | 0.00 | 0.00 | 0.00 | 69 | 998.2 |
| 20260508143947 | 88 | 0 | 0.0 | 0.0 | 0.00 | 0.00 | 0.00 | 68 | 998.1 |
| 20260508143447 | 88 | 0 | 0.0 | 0.0 | 0.00 | 0.00 | 0.00 | 68 | 998.2 |
| 20260508142947 | 88 | 0 | 0.0 | 0.0 | 0.00 | 0.00 | 0.00 | 68 | 998.1 |
| 20260508142448 | 88 | 90 | 0.0 | 0.0 | 0.00 | 0.00 | 0.00 | 68 | 998.3 |
| 20260508141948 | 88 | 0 | 0.0 | 0.0 | 0.00 | 0.00 | 0.00 | 68 | 998.2 |
| 20260508141446 | 88 | 22 | 0.0 | 0.0 | 0.00 | 0.00 | 0.00 | 68 | 998.1 |
| 20260508140446 | 88 | 22 | 0.0 | 0.0 | 0.00 | 0.00 | 0.00 | 68 | 998.0 |
| 20260508135948 | 88 | 292 | 0.0 | 0.0 | 0.00 | 0.00 | 0.00 | 68 | 997.9 |
| 20260508135446 | 88 | 292 | 0.0 | 0.0 | 0.00 | 0.00 | 0.00 | 68 | 997.8 |
| 20260508134946 | 34 | 292 | 0.0 | 0.0 | 0.00 | 0.00 | 0.00 | 68 | 997.8 |
| 20260508133946 | 88 | 292 | 0.0 | 0.0 | 0.00 | 0.00 | 0.00 | 68 | 997.4 |
| 20260508133448 | 88 | 292 | 0.0 | 0.0 | 0.00 | 0.00 | 0.00 | 68 | 997.3 |
| 20260508132946 | 88 | 292 | 0.0 | 0.0 | 0.00 | 0.00 | 0.00 | 68 | 997.1 |
| 20260508132446 | 88 | 292 | 0.0 | 0.0 | 0.00 | 0.00 | 0.00 | 68 | 997.1 |
| 20260508131446 | 88 | 292 | 0.0 | 0.0 | 0.00 | 0.00 | 0.00 | 68 | 997.1 |
| 20260508130948 | 88 | 292 | 0.0 | 0.9 | 0.00 | 0.00 | 0.00 | 68 | 997.0 |
| 20260508130446 | 88 | 292 | 0.0 | 0.0 | 0.00 | 0.00 | 0.00 | 68 | 996.9 |
| 20260508125446 | 89 | 22 | 0.0 | 0.0 | 0.00 | 0.00 | 0.00 | 67 | 996.7 |